TimeEST,TemperatureF,Dew PointF,Humidity,Sea Level PressureIn,VisibilityMPH,Wind Direction,Wind SpeedMPH,Gust SpeedMPH,PrecipitationIn,Events,Conditions,WindDirDegrees,DateUTC
12:56 AM,39.0,26.1,60,30.04,10.0,North,6.9,-,N/A,,Mostly Cloudy,350,2013-03-07 05:56:00
1:56 AM,37.9,27.0,65,30.04,10.0,NNW,5.8,-,N/A,,Mostly Cloudy,330,2013-03-07 06:56:00
2:56 AM,37.9,26.1,62,30.04,10.0,NNW,4.6,-,N/A,,Overcast,340,2013-03-07 07:56:00
3:56 AM,37.9,25.0,60,30.06,10.0,NNW,8.1,-,N/A,,Overcast,340,2013-03-07 08:56:00
4:56 AM,37.9,24.1,57,30.06,10.0,North,11.5,17.3,N/A,,Overcast,350,2013-03-07 09:56:00
5:56 AM,37.9,21.9,53,30.06,10.0,NNW,16.1,23.0,N/A,,Overcast,340,2013-03-07 10:56:00
6:56 AM,37.9,21.9,53,30.07,10.0,North,6.9,18.4,N/A,,Overcast,350,2013-03-07 11:56:00
7:56 AM,37.9,21.9,53,30.09,10.0,NNW,11.5,16.1,N/A,,Overcast,340,2013-03-07 12:56:00
8:56 AM,39.0,21.9,50,30.12,10.0,North,12.7,23.0,N/A,,Overcast,350,2013-03-07 13:56:00
9:56 AM,39.0,21.9,50,30.14,10.0,North,10.4,18.4,N/A,,Overcast,350,2013-03-07 14:56:00
10:56 AM,42.1,21.9,45,30.13,10.0,North,15.0,23.0,N/A,,Mostly Cloudy,360,2013-03-07 15:56:00
11:56 AM,42.1,21.9,45,30.13,10.0,North,10.4,21.9,N/A,,Overcast,350,2013-03-07 16:56:00
12:56 PM,45.0,21.9,40,30.12,10.0,NW,17.3,25.3,N/A,,Scattered Clouds,320,2013-03-07 17:56:00
1:56 PM,46.9,21.9,37,30.09,10.0,North,11.5,20.7,N/A,,Clear,350,2013-03-07 18:56:00
3:56 PM,46.9,21.0,36,30.11,10.0,NNW,10.4,18.4,N/A,,Mostly Cloudy,340,2013-03-07 20:56:00
4:56 PM,46.0,21.0,37,30.11,10.0,North,12.7,19.6,N/A,,Partly Cloudy,10,2013-03-07 21:56:00
5:56 PM,44.1,21.0,40,30.13,10.0,North,9.2,-,N/A,,Clear,350,2013-03-07 22:56:00
6:56 PM,43.0,21.0,42,30.15,10.0,North,5.8,-,N/A,,Clear,10,2013-03-07 23:56:00
7:56 PM,42.1,21.0,43,30.16,10.0,North,6.9,-,N/A,,Clear,350,2013-03-08 00:56:00
8:56 PM,41.0,21.9,47,30.16,10.0,North,8.1,-,N/A,,Mostly Cloudy,360,2013-03-08 01:56:00
9:56 PM,39.9,24.1,53,30.16,10.0,North,4.6,-,N/A,,Scattered Clouds,350,2013-03-08 02:56:00
10:56 PM,39.0,25.0,57,30.16,10.0,NNW,10.4,-,N/A,,Mostly Cloudy,330,2013-03-08 03:56:00
11:56 PM,37.9,24.1,57,30.16,10.0,North,8.1,-,N/A,,Mostly Cloudy,10,2013-03-08 04:56:00